Wind_Speed
2 3 3 3 3 3 4 4 4 5 5 4 4 4 4 4 5 5 6 6 6 7 8 7 7 6 6 6 5 5 4 5 5 6 5 5 6 6 5 5 5 4 3
3 3 4 4 4 4 4 5 5 6 6 6 5 6 6 6 5 5 6 6 7 8 8 8 8 7 7 7 7 6 6 6 6 6 7 6 6 6 6 6 6 5 4
4 4 5 5 5 5 5 6 6 7 7 6 7 7 7 6 5 5 6 6 7 7 7 7 7 8 8 8 8 7 7 7 6 6 7 8 8 7 7 7 7 6 5
4 4 5 5 5 6 6 6 6 6 7 7 7 8 8 7 7 6 6 5 6 7 8 7 8 8 9 9 9 9 8 8 7 7 8 9 9 8 8 8 7 7 6
5 5 5 6 6 6 7 7 7 7 7 7 8 8 8 8 8 7 7 6 6 7 9 9 9 9 9 9 9 9 9 9 9 7 8 9 9 9 8 8 8 8 7
7 7 7 7 7 7 7 8 7 8 8 8 8 9 9 8 8 8 8 8 9 9 10 10 10 10 9 9 9 9 9 10 10 9 8 9 9 9 9 8 8 8 8
7 8 8 8 8 8 8 8 8 8 8 8 9 9 9 8 8 8 9 9 10 10 11 11 11 11 10 9 9 9 9 9 10 9 9 10 10 10 10 9 8 9 9
8 8 8 9 9 9 9 9 9 9 9 9 9 9 9 8 9 9 9 9 9 10 10 10 11 11 10 10 10 10 9 9 9 10 10 10 10 9 10 10 9 9 9
8 8 8 8 9 9 9 9 9 10 10 10 10 10 10 9 9 9 10 9 10 10 10 10 9 10 10 10 10 10 10 10 10 10 10 9 10 10 10 10 10 10 10
8 8 8 8 8 8 9 9 9 10 10 11 11 11 10 10 10 10 9 9 9 9 10 10 10 10 11 10 10 10 10 10 10 10 10 10 10 10 11 11 11 11 10
7 8 8 7 8 8 9 9 10 10 10 10 10 11 11 11 10 10 10 10 10 10 10 10 10 10 10 10 10 9 10 10 10 10 10 10 10 10 11 12 12 12 12
6 7 7 7 8 8 9 9 10 10 10 10 11 11 11 11 11 11 11 10 10 10 9 8 9 10 11 10 10 10 10 11 10 11 11 11 11 11 12 12 13 13 13
6 7 7 7 7 8 8 9 10 10 10 10 11 11 11 11 11 11 11 10 9 9 8 8 9 9 10 10 10 11 11 11 11 11 11 11 12 12 12 12 13 13 13
7 7 8 8 8 8 9 9 9 10 10 10 10 10 11 11 10 9 10 10 9 8 8 8 8 9 10 10 11 11 10 11 12 12 12 12 12 13 13 13 13 14 13
7 7 8 8 9 9 9 9 9 9 10 10 11 10 10 10 10 9 9 9 9 9 8 8 9 10 10 11 12 12 11 12 12 13 13 13 13 13 13 13 13 14 13
7 8 8 8 8 8 9 9 9 10 10 11 11 10 10 10 9 9 9 9 9 9 9 10 10 10 10 11 11 12 12 12 12 12 12 13 13 12 12 12 12 13 13
7 7 8 9 8 8 9 9 10 10 11 11 10 10 10 9 9 9 9 9 9 9 9 10 10 11 11 11 11 11 12 12 11 12 12 12 12 12 12 12 12 12 12
8 8 8 9 8 9 9 10 10 11 11 11 10 10 10 10 10 10 10 10 9 9 9 10 11 11 11 11 11 11 12 12 11 12 11 12 12 12 12 11 11 12 12
9 9 9 9 9 9 10 10 10 11 11 10 10 10 10 10 10 10 10 11 10 10 10 10 11 11 11 11 11 11 12 12 12 12 11 11 11 11 11 11 12 12 12
10 10 10 10 10 10 10 11 11 11 11 10 10 10 10 10 11 11 10 10 11 11 10 10 11 11 11 10 10 10 10 11 11 10 10 10 11 11 11 11 12 12 13
10 10 11 11 11 11 11 11 11 11 11 11 11 11 11 11 11 11 11 10 10 10 10 10 10 10 10 9 9 9 10 10 10 10 10 10 10 10 11 11 11 11 11
11 11 11 12 12 12 12 12 12 12 12 11 11 12 12 12 11 11 11 10 10 9 9 10 10 10 9 9 8 9 9 9 9 9 9 9 10 10 10 10 10 10 11
13 13 13 13 13 13 13 12 12 12 12 12 12 12 12 12 12 11 11 10 9 9 9 9 10 10 9 9 9 9 10 10 10 10 9 10 10 10 10 10 10 10 10
14 14 14 13 13 13 13 13 13 13 13 13 13 12 12 12 12 11 11 11 10 10 10 10 10 10 10 10 10 10 10 11 11 11 10 11 11 11 11 10 10 10 11
16 15 15 15 14 14 14 14 14 14 14 13 13 13 12 12 12 12 11 11 11 11 11 11 11 10 10 10 10 11 11 11 11 11 11 11 11 12 12 12 11 11 10
17 17 16 16 16 16 16 15 15 15 15 14 14 14 13 13 13 12 12 12 12 12 11 11 12 11 11 11 11 11 11 12 12 12 12 12 12 12 12 12 12 11 11
Wind_Direction
294 295 290 281 288 294 292 287 285 291 295 301 305 292 288 282 276 274 266 246 241 233 231 230 229 230 230 231 231 232 230 223 218 217 211 213 209 211 211 215 215 217 214
293 290 289 292 292 295 290 282 284 288 289 294 296 296 293 286 281 278 274 260 247 235 233 236 234 233 233 237 237 236 232 228 227 226 219 218 216 220 221 222 226 226 228
296 290 292 296 293 292 289 285 288 289 287 291 293 295 294 288 279 282 282 268 246 235 237 241 237 236 237 240 240 240 238 237 236 233 228 224 223 226 229 226 226 224 235
298 298 300 300 299 293 291 291 293 294 289 289 291 291 289 292 285 284 283 269 248 239 240 243 239 240 240 241 240 238 236 237 238 236 229 225 222 226 230 229 229 230 240
292 295 297 299 299 296 293 292 292 293 291 291 293 294 296 292 287 282 279 271 257 253 248 248 247 248 245 243 240 236 234 235 233 235 230 221 219 224 228 232 231 235 240
290 291 292 293 294 294 292 289 290 291 291 291 293 295 296 296 292 282 276 272 266 262 257 255 254 252 247 241 239 237 239 237 231 230 224 217 220 227 233 236 233 237 240
285 286 288 288 289 289 290 290 288 291 293 293 293 295 297 299 294 289 282 275 269 263 262 261 255 249 246 243 242 240 239 237 232 230 228 226 230 234 238 238 243 246 247
284 282 284 286 288 288 290 290 289 290 292 293 294 294 293 294 291 292 287 285 276 268 263 259 254 249 246 244 242 242 242 239 234 228 229 232 234 237 239 241 244 246 246
286 285 283 285 286 287 288 289 288 290 292 293 292 292 290 291 288 287 285 282 282 276 262 253 253 246 240 241 241 242 240 236 235 233 234 237 237 235 237 241 243 247 250
290 288 287 287 286 285 287 290 292 292 291 291 291 289 285 285 286 285 283 281 278 274 269 268 261 252 243 240 241 239 240 240 240 240 240 240 240 240 240 244 246 248 248
294 292 292 291 291 289 288 292 295 294 292 291 289 286 285 284 286 284 277 277 274 270 269 267 262 257 244 239 239 244 245 247 248 244 241 240 243 245 246 247 248 248 248
302 299 298 296 295 295 295 296 297 297 294 292 291 287 286 286 286 285 286 281 273 269 266 259 254 242 238 242 243 248 250 250 252 248 245 244 245 248 250 251 251 250 249
304 305 306 308 306 303 302 301 300 300 299 295 294 291 289 290 289 286 287 286 280 273 262 250 242 234 240 248 250 252 253 252 251 249 246 247 248 250 253 254 252 250 250
307 309 309 310 308 306 305 305 304 303 303 300 298 296 293 292 291 289 284 285 281 277 267 251 244 243 247 251 252 252 255 254 252 252 251 250 252 254 257 259 254 249 250
312 310 310 310 307 307 308 308 305 305 304 303 301 299 294 291 290 291 285 283 276 274 274 271 260 258 255 254 255 257 259 256 252 252 253 254 255 254 256 259 255 251 250
316 310 310 313 311 310 309 307 305 305 304 304 302 299 296 292 292 291 287 283 278 271 269 266 262 257 255 257 259 262 262 260 259 257 258 257 257 258 258 258 255 253 252
315 314 311 312 312 312 310 307 305 304 306 305 303 302 299 295 293 292 290 286 280 272 267 264 265 264 264 262 261 261 261 262 262 255 257 259 259 260 260 261 261 258 255
313 312 313 315 313 312 310 309 308 306 306 307 303 302 299 296 294 293 291 286 282 276 270 269 270 269 269 265 263 261 260 260 261 260 259 262 262 258 259 260 260 258 257
309 308 308 309 310 311 310 310 309 308 305 305 303 300 297 296 295 294 292 289 285 278 273 270 271 270 270 267 264 263 261 258 259 260 262 261 259 258 257 257 259 257 256
307 305 304 305 306 308 307 307 304 304 304 303 301 299 298 299 296 295 293 290 287 284 279 274 273 273 269 267 265 263 258 256 257 260 262 262 261 261 257 255 258 258 258
302 304 301 301 304 306 306 304 302 300 300 301 300 298 296 296 297 297 296 292 287 283 279 276 275 277 268 267 265 260 259 256 256 259 263 263 263 262 261 262 264 262 261
300 301 300 301 302 302 304 303 302 300 298 299 300 299 297 296 297 297 296 295 290 286 281 277 276 275 272 271 268 263 261 261 260 265 267 267 267 267 267 267 268 265 262
297 297 296 296 297 298 299 299 300 298 296 295 297 297 296 295 294 294 296 293 288 284 283 282 281 277 274 269 265 264 260 259 260 261 266 269 269 267 267 267 268 264 261
294 294 294 293 293 294 295 297 299 298 294 293 294 294 295 294 294 294 292 291 286 283 282 280 282 280 275 269 265 262 261 262 260 260 262 266 269 269 267 266 267 264 263
290 291 292 291 290 290 291 292 293 294 293 293 291 291 293 292 291 292 289 288 287 286 283 279 280 279 275 269 267 265 263 264 264 263 264 265 265 266 269 268 267 265 267
288 288 288 288 288 288 288 288 288 289 290 289 289 287 287 287 288 288 288 287 284 283 282 279 278 277 273 270 269 269 269 268 267 267 267 267 267 266 267 267 267 266 270
Height
5860 5860 5860 5860 5860 5860 5860 5860 5859 5859 5859 5859 5859 5858 5858 5857 5857 5857 5856 5856 5856 5857 5858 5859 5860 5861 5862 5862 5863 5863 5864 5864 5865 5866 5866 5868 5869 5870 5871 5872 5872 5873 5874
5860 5860 5860 5859 5859 5859 5859 5859 5859 5859 5859 5858 5858 5858 5857 5857 5856 5856 5854 5853 5853 5855 5857 5858 5859 5860 5861 5861 5862 5863 5863 5864 5864 5865 5866 5867 5868 5869 5870 5871 5872 5872 5873
5859 5859 5859 5859 5859 5859 5858 5858 5858 5858 5858 5857 5857 5857 5856 5856 5855 5855 5853 5851 5851 5853 5856 5857 5858 5859 5860 5860 5861 5862 5862 5863 5864 5864 5864 5866 5867 5868 5869 5870 5871 5872 5873
5859 5859 5858 5858 5858 5858 5857 5857 5857 5857 5857 5856 5856 5856 5855 5855 5854 5854 5853 5852 5852 5853 5855 5857 5857 5858 5859 5859 5860 5861 5861 5862 5862 5862 5862 5863 5865 5867 5868 5869 5870 5871 5872
5858 5858 5858 5857 5857 5857 5857 5856 5856 5856 5856 5856 5855 5855 5854 5854 5854 5853 5853 5853 5853 5854 5855 5855 5856 5857 5857 5858 5859 5859 5860 5861 5861 5861 5860 5862 5864 5865 5867 5868 5869 5870 5870
5857 5857 5857 5856 5856 5856 5856 5855 5855 5855 5855 5855 5854 5854 5853 5852 5852 5852 5852 5852 5852 5853 5853 5854 5855 5855 5856 5856 5857 5858 5859 5859 5860 5861 5861 5861 5863 5864 5865 5867 5867 5868 5869
5856 5856 5856 5855 5855 5855 5854 5854 5854 5854 5854 5853 5853 5853 5852 5851 5851 5851 5851 5851 5851 5851 5852 5852 5853 5853 5854 5855 5855 5856 5857 5858 5859 5859 5860 5861 5862 5863 5864 5865 5866 5867 5868
5855 5855 5854 5854 5854 5853 5853 5853 5853 5852 5852 5852 5852 5851 5851 5850 5850 5850 5850 5849 5849 5850 5850 5850 5850 5851 5852 5853 5853 5854 5855 5856 5857 5858 5859 5860 5861 5862 5863 5864 5864 5865 5866
5853 5853 5853 5853 5852 5852 5852 5852 5851 5851 5851 5850 5850 5850 5850 5849 5849 5849 5848 5848 5848 5847 5847 5847 5847 5848 5849 5850 5851 5852 5853 5854 5855 5857 5858 5859 5859 5860 5861 5862 5863 5864 5865
5852 5852 5852 5851 5851 5851 5850 5850 5850 5849 5849 5849 5849 5848 5848 5848 5848 5847 5847 5846 5846 5845 5845 5845 5844 5845 5846 5848 5849 5850 5852 5853 5854 5855 5856 5857 5858 5859 5860 5860 5861 5862 5863
5851 5850 5850 5850 5850 5849 5849 5848 5848 5848 5847 5847 5847 5847 5846 5846 5846 5846 5845 5845 5844 5844 5843 5841 5840 5841 5842 5845 5847 5849 5850 5851 5852 5853 5854 5855 5856 5857 5858 5858 5859 5860 5861
5850 5849 5849 5849 5848 5848 5848 5847 5847 5846 5846 5845 5845 5845 5844 5844 5844 5844 5843 5843 5843 5842 5841 5838 5837 5836 5839 5843 5845 5847 5848 5849 5850 5851 5852 5853 5854 5854 5855 5856 5857 5858 5858
5848 5848 5848 5847 5847 5847 5846 5846 5845 5845 5844 5844 5843 5843 5843 5842 5842 5842 5842 5841 5841 5841 5840 5838 5837 5837 5839 5842 5844 5845 5846 5847 5848 5849 5850 5851 5851 5852 5853 5854 5854 5855 5856
5847 5847 5847 5846 5846 5845 5845 5844 5844 5843 5843 5842 5842 5841 5841 5841 5840 5840 5840 5840 5840 5840 5839 5838 5838 5838 5839 5841 5842 5843 5844 5845 5846 5847 5848 5848 5849 5850 5850 5851 5852 5853 5853
5847 5846 5846 5845 5844 5844 5843 5843 5842 5842 5841 5841 5840 5840 5839 5839 5838 5838 5838 5838 5838 5838 5838 5838 5838 5838 5839 5840 5840 5841 5842 5843 5844 5844 5845 5846 5846 5847 5848 5848 5849 5850 5851
5845 5845 5844 5844 5843 5843 5842 5842 5841 5841 5840 5839 5838 5838 5837 5837 5837 5837 5837 5836 5836 5836 5836 5837 5837 5837 5837 5838 5838 5839 5839 5840 5841 5841 5842 5843 5844 5845 5845 5846 5847 5848 5848
5844 5844 5843 5843 5842 5842 5841 5840 5840 5839 5839 5838 5837 5837 5836 5836 5835 5835 5835 5834 5834 5834 5834 5835 5835 5835 5835 5836 5836 5837 5837 5838 5838 5839 5840 5841 5841 5842 5843 5843 5844 5845 5846
5843 5843 5842 5841 5840 5840 5840 5839 5839 5838 5837 5836 5836 5835 5835 5834 5834 5833 5833 5833 5832 5832 5832 5832 5833 5833 5833 5833 5834 5834 5835 5836 5836 5837 5838 5838 5839 5839 5840 5841 5842 5843 5843
5842 5842 5841 5840 5839 5839 5838 5838 5837 5836 5835 5835 5834 5834 5833 5833 5832 5832 5831 5831 5830 5830 5830 5830 5830 5831 5831 5831 5832 5832 5832 5833 5834 5834 5835 5835 5836 5837 5837 5838 5839 5840 5841
5841 5840 5839 5839 5838 5838 5837 5836 5836 5835 5834 5833 5833 5832 5831 5830 5830 5830 5829 5829 5828 5828 5828 5828 5828 5828 5828 5829 5829 5829 5830 5830 5831 5832 5832 5833 5833 5834 5835 5835 5836 5837 5838
5839 5838 5837 5837 5836 5836 5835 5834 5834 5833 5832 5831 5831 5830 5829 5829 5828 5828 5827 5827 5826 5826 5825 5825 5826 5826 5826 5826 5827 5827 5827 5828 5829 5829 5830 5830 5831 5831 5832 5833 5834 5834 5835
5837 5836 5835 5835 5834 5834 5833 5832 5832 5831 5830 5830 5829 5828 5828 5827 5826 5826 5825 5824 5824 5823 5823 5823 5823 5824 5824 5824 5825 5825 5826 5827 5826 5827 5827 5828 5828 5829 5830 5830 5831 5832 5832
5834 5834 5833 5832 5832 5831 5831 5830 5829 5828 5828 5827 5827 5826 5825 5825 5824 5823 5823 5822 5822 5821 5821 5821 5821 5821 5821 5822 5822 5823 5823 5824 5824 5825 5825 5825 5826 5826 5827 5828 5828 5829 5829
5831 5831 5830 5830 5829 5829 5828 5827 5827 5826 5825 5825 5824 5823 5823 5822 5821 5821 5821 5820 5820 5820 5819 5819 5819 5819 5819 5819 5820 5820 5821 5821 5822 5823 5823 5823 5823 5824 5824 5825 5826 5826 5827
5828 5828 5827 5826 5826 5826 5825 5825 5824 5823 5822 5822 5821 5821 5820 5820 5819 5818 5818 5818 5817 5817 5817 5817 5817 5817 5817 5817 5817 5817 5818 5818 5819 5820 5820 5821 5821 5821 5821 5822 5823 5823 5824
5825 5824 5824 5823 5823 5822 5822 5821 5821 5820 5819 5819 5818 5818 5817 5817 5816 5816 5815 5815 5815 5815 5814 5814 5814 5814 5814 5814 5815 5815 5815 5815 5816 5817 5817 5818 5818 5818 5818 5819 5820 5821 5821